Theta_e
316 314 311 308 305 304 299 300 293 301 303 295 295 293 290 292 292 293 293 292 290 289 289 288 287 287 286 288 288 285 287 285 281 283 282 283 283 282 283 279 279 281 280 279
315 313 311 308 304 304 298 295 296 302 301 293 293 290 290 291 290 291 291 290 291 290 288 285 288 287 286 287 287 285 286 283 280 280 280 281 280 282 281 281 279 278 276 278
315 313 311 308 306 304 298 293 292 295 297 293 292 290 290 288 289 290 290 290 290 288 287 289 286 286 285 285 286 285 286 284 282 279 282 281 280 279 280 279 276 277 278 280
315 313 311 308 305 305 298 293 291 294 291 291 291 291 289 287 286 289 289 287 288 287 285 285 285 287 284 284 285 285 284 280 283 283 283 281 279 279 280 277 277 275 278 277
315 313 311 308 304 303 295 290 292 291 291 290 290 288 288 287 286 287 286 285 288 288 286 286 283 286 285 284 284 284 283 281 279 276 280 278 275 277 278 278 277 277 276 275
315 312 310 307 304 302 291 292 291 291 290 289 289 288 287 286 288 285 286 287 286 285 286 285 285 286 285 286 284 283 281 280 276 275 275 275 272 275 275 277 275 274 272 273
313 312 310 307 304 302 295 294 292 290 287 286 289 287 287 286 287 284 284 285 284 283 286 285 285 284 282 283 282 283 280 278 277 274 274 268 271 275 274 274 274 273 273 271
310 313 310 307 304 301 296 293 291 290 287 285 285 284 285 286 285 283 283 283 285 286 284 280 278 277 277 277 278 279 280 278 274 271 272 275 271 272 272 271 272 272 272 271
309 312 309 307 304 303 295 291 291 289 285 281 284 285 286 283 283 281 281 284 287 284 281 279 277 277 277 274 274 278 278 278 275 272 268 268 272 273 275 273 269 272 272 272
309 311 308 306 305 301 296 290 291 289 283 281 282 282 281 286 285 283 281 281 281 283 279 277 278 277 276 274 273 272 273 274 271 272 270 273 274 274 275 267 269 273 273 273
310 309 307 306 305 300 294 287 290 290 282 279 282 282 282 283 284 281 281 280 279 278 277 278 278 275 276 274 276 274 273 272 271 272 270 267 275 273 270 272 273 274 273 273
310 307 307 307 303 298 294 286 288 288 283 279 283 283 284 282 283 283 282 281 280 282 280 279 279 275 275 275 272 275 272 276 275 274 273 275 276 275 274 275 273 273 272 273
308 307 306 304 300 297 292 287 288 287 282 280 282 281 283 286 284 285 282 282 284 282 284 282 279 275 277 273 273 274 274 274 274 273 273 273 274 274 275 274 273 273 273 272
305 304 304 301 298 295 292 289 290 288 286 281 278 284 281 285 286 285 286 284 284 283 283 280 278 276 277 276 274 274 274 274 273 273 273 273 273 274 274 274 273 272 273 272
304 303 301 299 297 296 291 290 290 290 287 280 277 282 282 285 285 285 285 284 283 281 279 278 276 276 275 275 274 272 274 274 271 271 274 274 273 274 274 272 272 272 271 271
303 300 299 297 295 294 291 285 289 290 289 282 276 280 279 282 283 281 281 281 281 280 279 277 276 276 276 272 271 275 275 274 274 273 274 273 273 273 273 272 272 271 271 271
301 300 298 295 294 292 287 286 288 289 290 282 274 275 278 279 280 280 279 280 278 279 277 276 275 274 276 273 270 274 274 274 272 273 272 271 271 271 272 271 271 271 271 271
301 298 295 294 293 291 287 287 288 288 285 284 275 273 275 278 276 275 279 277 277 275 275 275 273 272 273 269 274 273 273 273 272 272 272 272 272 271 271 271 270 269 269 269
298 296 294 290 288 285 285 287 286 286 286 278 277 272 271 278 276 277 276 277 273 274 273 271 271 271 268 273 274 272 271 271 272 272 272 271 270 270 270 270 269 268 268 267
294 288 285 282 284 289 288 283 282 281 278 278 274 275 271 275 275 273 274 273 271 269 268 268 268 270 274 271 271 274 273 273 273 269 267 269 269 269 267 263 261 261 262 261
288 284 281 286 286 283 280 277 277 275 273 274 272 273 271 274 273 271 270 270 268 267 267 267 268 267 271 269 268 267 270 271 267 267 266 266 267 266 263 262 263 261 260 259
289 286 285 283 280 279 276 273 273 273 272 272 273 272 273 272 274 271 268 268 266 266 267 266 266 272 267 266 264 263 263 264 262 262 263 262 264 262 260 259 260 260 260 258
285 282 279 279 276 272 271 270 271 271 271 271 271 270 272 271 272 268 269 267 266 267 265 266 270 269 267 265 262 260 258 260 262 262 261 262 261 260 258 259 259 259 259 260
281 278 270 273 272 272 271 271 271 270 272 272 272 269 271 270 268 266 267 263 264 264 263 266 271 267 263 261 262 262 261 260 262 264 263 262 262 260 261 259 259 259 260 261
276 277 271 270 269 270 270 270 271 271 273 272 270 270 272 268 265 266 264 261 263 266 267 270 269 264 260 261 262 263 264 262 263 264 264 264 265 264 265 267 266 266 265 265
274 273 270 270 271 269 270 271 270 272 272 272 273 269 268 266 267 265 266 266 265 268 269 270 268 264 261 262 264 265 266 266 267 268 267 268 267 267 267 267 267 266 266 265
272 269 273 272 272 270 271 272 271 273 272 272 271 269 266 265 266 265 266 267 269 269 270 270 267 266 267 265 266 267 268 268 268 268 268 268 268 267 265 264 266 266 266 266
Wind_Speed
16 15 12 8 5 2 2 2 4 2 2 4 2 4 1 2 3 2 2 3 3 3 2 4 4 3 2 2 4 4 3 3 7 4 3 2 3 4 4 7 10 11 14 12
17 16 14 10 4 4 2 3 1 2 3 5 6 2 3 1 5 4 4 4 3 2 4 5 5 5 3 3 4 2 4 5 5 6 2 2 5 6 8 4 3 16 14 10
18 17 17 14 11 9 2 2 3 3 3 0 4 3 3 4 0 3 2 2 3 4 6 5 2 6 3 2 3 1 2 4 10 12 15 3 7 9 9 10 8 15 16 19
19 19 17 15 10 8 2 4 3 2 5 7 7 4 3 4 4 2 4 3 10 6 5 4 6 5 4 3 4 3 4 6 9 12 13 10 11 14 14 17 18 16 19 18
19 19 19 16 15 6 3 2 4 3 3 4 8 4 7 8 4 7 5 6 3 9 7 4 1 5 5 4 7 6 4 4 2 6 12 8 12 16 17 18 18 21 19 12
17 20 19 20 20 13 2 1 1 1 4 6 6 5 5 7 8 2 3 3 5 7 3 3 4 4 4 1 3 9 5 4 3 7 2 8 15 10 8 11 2 5 10 3
9 19 20 22 22 9 1 1 1 3 3 6 6 5 5 6 7 2 3 2 3 5 8 9 6 5 2 2 1 4 5 6 3 5 4 8 5 4 5 4 2 2 2 3
13 19 20 22 23 16 2 1 2 3 3 2 4 8 5 7 6 3 4 2 4 10 5 3 4 4 3 3 0 3 2 6 4 5 6 8 5 3 3 2 4 3 3 2
11 18 21 21 20 19 4 2 1 2 4 4 3 6 8 5 6 5 4 5 3 3 4 3 4 5 1 4 4 1 3 3 5 3 5 7 5 6 4 4 6 6 4 3
8 17 20 20 21 19 5 3 1 4 3 1 2 3 3 3 4 3 5 7 5 2 4 4 4 5 1 5 5 7 5 5 11 9 6 3 7 8 5 3 3 8 3 4
9 19 19 19 20 18 5 3 1 3 4 2 3 3 1 2 3 5 8 6 2 4 5 4 4 5 5 3 1 5 8 7 6 5 6 9 11 7 4 4 3 1 2 4
18 20 16 16 18 15 6 3 1 5 7 4 3 6 7 3 3 1 7 2 4 5 4 1 2 3 2 3 4 2 6 4 1 5 0 4 12 4 5 2 2 1 3 5
18 19 19 18 16 10 5 3 2 5 5 3 3 3 3 5 4 3 2 1 3 3 2 2 0 3 1 4 4 4 3 2 4 3 5 6 7 4 2 2 1 1 4 6
19 19 19 19 15 11 6 2 1 4 4 4 4 1 3 6 3 2 2 4 4 5 2 2 2 3 1 0 3 4 3 7 5 4 4 3 6 6 5 5 2 4 5 6
18 20 20 18 15 15 9 4 5 3 2 4 4 4 6 7 5 5 5 7 5 2 3 2 2 2 3 1 1 5 7 5 5 1 8 3 5 6 6 5 5 4 5 7
20 22 19 18 15 15 3 3 1 2 2 4 4 3 4 6 9 11 10 6 4 3 2 2 2 3 2 3 3 3 5 2 4 4 6 6 7 5 4 5 3 3 5 7
23 21 20 17 11 5 3 2 2 4 1 3 5 3 3 3 2 3 4 6 3 2 2 1 2 2 2 2 4 5 8 7 7 8 8 4 5 2 5 2 2 3 5 7
22 24 18 16 18 13 4 4 4 3 4 3 4 3 3 4 2 3 3 1 2 4 2 2 2 2 2 5 5 6 8 8 6 6 4 4 5 4 3 2 3 5 6 6
23 23 18 4 4 2 3 7 7 5 4 4 2 5 4 1 2 2 2 2 1 2 1 2 3 3 6 3 7 11 10 6 5 8 6 5 4 3 3 3 4 6 7 6
22 3 2 3 3 7 4 1 1 4 4 4 3 1 3 1 2 2 2 1 2 2 2 3 4 4 1 3 2 4 9 6 8 8 4 5 5 4 2 2 0 1 4 5
0 2 3 3 2 2 2 2 0 2 3 2 3 2 4 1 2 3 2 2 2 1 3 4 2 4 2 4 6 4 5 6 5 4 4 5 3 3 2 2 3 3 5 4
5 8 6 3 1 1 2 1 2 1 3 2 2 3 3 3 1 3 1 2 1 1 1 3 4 1 3 4 4 4 4 5 5 2 5 3 2 2 1 2 4 4 3 4
2 3 4 0 1 2 3 4 2 3 4 4 3 3 2 3 2 4 1 3 2 1 2 4 3 2 2 4 4 4 2 3 4 3 2 2 1 2 2 4 4 5 5 6
2 1 3 1 3 2 3 3 3 3 3 6 4 3 1 2 3 1 3 3 1 3 3 3 2 3 1 3 2 4 5 5 3 3 3 2 3 3 4 6 5 5 6 6
3 2 3 3 3 3 3 1 2 2 4 3 4 3 1 2 4 3 4 3 4 3 2 2 3 3 1 3 3 3 4 5 4 3 3 4 5 6 7 6 6 7 7 6
3 5 3 2 2 3 2 2 4 2 2 1 0 3 3 2 3 4 4 2 3 1 2 2 3 0 2 3 3 3 3 5 4 4 5 5 6 6 6 4 6 6 6 6
4 3 4 3 4 4 3 2 3 1 1 2 1 2 3 2 2 2 2 1 2 2 3 2 1 2 1 3 3 4 5 5 4 4 5 5 4 3 5 6 6 6 6 6
Wind_Direction
198 203 209 217 231 277 255 264 239 43 271 205 222 228 114 86 146 167 206 285 287 264 187 223 236 240 68 151 179 187 154 268 260 259 91 11 298 286 270 242 257 245 268 291
195 198 194 200 217 223 323 247 91 130 263 234 211 123 150 187 162 185 177 197 250 235 216 236 214 193 143 184 208 203 161 209 276 177 182 184 235 210 249 290 298 248 266 271
196 194 194 184 191 205 218 241 196 146 195 312 302 195 209 183 181 151 194 157 193 198 224 235 214 194 141 173 196 92 204 261 253 267 298 337 233 214 229 225 243 266 250 276
199 190 191 183 182 205 226 215 223 335 176 206 196 201 125 184 201 229 212 197 229 206 235 232 227 194 156 181 169 189 249 253 258 273 284 278 269 266 249 233 248 260 284 293
197 188 186 180 159 170 272 226 188 185 128 142 166 175 196 209 164 169 206 234 193 211 234 258 243 181 201 195 179 200 187 271 291 265 254 273 269 259 252 255 267 267 276 284
203 191 182 177 170 160 200 298 317 288 152 170 194 191 187 195 141 153 6 236 193 215 248 86 72 48 48 359 189 200 199 246 241 271 30 307 270 274 262 242 87 310 264 33
267 196 185 180 177 173 36 137 132 118 227 203 209 167 163 169 183 147 140 189 203 107 118 110 101 86 81 176 147 305 217 214 259 291 310 250 74 87 64 30 78 125 154 84
314 205 183 181 178 168 116 91 101 170 222 164 164 160 143 124 122 117 147 88 39 147 148 195 201 187 219 174 333 206 271 220 254 257 241 295 165 166 147 170 159 144 129 171
306 201 182 179 182 172 107 85 301 180 142 209 9 149 183 162 172 147 106 86 123 147 211 194 235 244 220 183 163 178 182 267 228 170 264 272 78 128 90 80 255 159 161 274
283 183 174 176 178 166 134 121 106 101 124 53 35 163 178 155 175 120 134 155 152 261 188 210 217 235 345 224 204 171 169 206 220 230 254 251 144 139 140 180 89 160 223 315
204 167 171 174 168 157 103 104 265 126 97 57 16 18 128 119 205 171 129 130 181 165 205 222 200 246 186 218 132 190 181 188 196 213 229 248 149 136 229 87 133 241 266 303
157 154 172 162 147 147 124 113 70 63 74 88 72 87 63 35 2 78 179 39 135 150 182 245 218 208 174 239 223 198 220 258 280 227 60 99 173 60 102 95 345 255 299 316
142 140 142 140 141 134 79 106 150 77 92 85 193 107 50 45 357 329 176 172 102 123 64 127 135 228 231 205 232 164 205 182 241 246 146 166 177 175 174 166 230 302 300 299
129 132 137 133 123 118 106 98 340 79 116 134 108 42 42 339 322 174 351 92 87 104 121 149 195 212 188 331 11 248 52 160 202 241 154 148 201 205 189 183 210 267 272 290
132 130 126 125 122 103 80 61 34 15 326 111 112 124 32 17 68 101 126 133 118 138 147 177 158 107 168 89 317 237 183 185 201 281 123 66 105 157 165 198 236 258 289 301
140 127 125 123 124 122 173 111 95 15 58 113 126 69 50 51 78 80 71 63 55 59 104 120 100 61 275 200 236 103 153 141 21 119 108 90 114 143 177 221 223 282 287 294
128 127 125 121 106 70 45 50 80 89 64 101 104 103 51 356 15 48 53 47 60 45 116 73 114 142 269 229 237 139 169 152 129 120 123 138 179 191 175 211 276 286 288 285
125 118 114 104 100 126 77 31 44 74 100 56 109 92 167 2 69 95 358 103 119 27 89 135 142 155 238 245 201 146 148 142 149 158 158 90 114 150 210 219 260 281 289 302
122 120 114 94 34 58 96 119 81 61 46 116 140 157 156 140 89 96 108 331 82 357 156 128 262 158 224 231 172 171 168 173 173 168 170 172 198 224 225 239 275 283 298 309
126 117 138 103 63 112 181 181 97 44 20 33 86 269 126 246 149 99 140 15 92 221 66 307 236 249 264 187 97 124 153 140 139 147 181 203 226 224 185 198 15 269 277 288
187 95 68 78 50 208 28 106 135 118 113 51 73 17 124 43 152 118 350 118 76 211 99 276 241 261 178 125 117 86 93 125 82 73 73 72 81 136 165 241 236 237 254 253
117 106 104 136 172 119 156 67 126 133 96 109 122 87 54 109 306 113 78 103 129 257 54 268 258 263 87 139 109 106 99 116 124 79 117 119 112 88 131 274 268 250 256 280
91 69 84 280 40 173 195 192 172 148 145 147 154 129 89 145 92 82 132 152 93 204 223 249 275 52 118 133 117 114 91 107 129 135 117 114 107 112 195 260 249 259 262 260
54 99 93 255 164 58 32 19 51 79 115 142 128 111 87 107 85 68 107 59 284 223 231 241 47 19 47 135 149 138 176 182 177 174 164 189 212 240 233 233 246 248 259 267
54 345 71 57 89 59 66 76 151 102 127 143 128 109 125 81 98 57 115 133 233 236 258 26 7 345 268 187 185 176 150 167 189 188 196 214 224 230 252 240 235 240 255 263
56 53 91 104 164 116 112 103 107 90 107 187 358 100 97 93 106 165 201 213 228 57 332 347 328 272 213 216 194 184 169 176 191 196 209 228 237 246 264 272 258 262 269 276
53 59 27 42 51 83 86 79 63 27 279 54 121 182 77 113 129 204 209 240 27 352 330 328 317 324 16 194 196 192 195 199 207 217 222 235 253 264 260 260 255 253 268 276